Location: Quebec
(46.8000°N, 71.2500°W)
Time: 17:58:04
(UTC-04:00)

Vanguard 1 Rocket - All Passes

Search period start: 21 June 2018 00:00
Search period end: 01 July 2018 00:00
Orbit: 653 x 4224 km, 34.3° (Epoch: 20 June)

Date Brightness Start Highest point End Pass type
(mag) Time Alt. Az. Time Alt. Az. Time Alt. Az.
21 Jun - 17:13:16 10° SSW 17:16:00 16° SSE 17:19:08 10° ESE daylight
21 Jun - 19:35:26 10° SW 19:39:56 27° S 19:46:40 10° SE daylight
21 Jun - 21:59:31 10° WSW 22:05:02 21° SSW 22:13:17 10° SSE visible
22 Jun - 18:25:35 10° SW 18:29:21 23° S 18:34:21 10° ESE daylight
22 Jun - 20:48:59 10° WSW 20:53:51 23° S 21:01:09 10° SE daylight
22 Jun - 23:16:01 10° SW 23:19:36 12° SSW 23:23:55 10° S visible
23 Jun - 17:15:55 10° SSW 17:18:55 17° SSE 17:22:21 10° ESE daylight
23 Jun - 19:38:46 10° SW 19:42:59 24° S 19:49:00 10° SE daylight
23 Jun - 22:03:45 10° SW 22:08:06 16° SSW 22:13:55 10° SSE visible
24 Jun - 16:06:48 10° S 16:08:31 12° SSE 16:10:16 10° SE daylight
24 Jun - 18:28:44 10° SW 18:32:22 22° S 18:37:03 10° SE daylight
24 Jun - 20:52:45 10° SW 20:56:55 18° SSW 21:02:41 10° SSE daylight
25 Jun - 17:18:47 10° SW 17:21:54 19° S 17:25:25 10° SE daylight
25 Jun - 19:42:16 10° SW 19:46:02 20° S 19:51:08 10° SE daylight
25 Jun - 22:09:57 10° SSW 22:11:10 10° SSW 22:12:29 10° SSW visible
26 Jun - 16:08:56 10° SSW 16:11:28 15° SSE 16:13:59 10° SE daylight
26 Jun - 18:32:00 10° SW 18:35:24 20° S 18:39:37 10° SE daylight
26 Jun - 20:57:07 10° SW 21:00:00 13° SSW 21:03:32 10° S daylight
27 Jun - 14:59:38 10° S 15:00:56 11° SSE 15:02:12 10° SSE daylight
27 Jun - 17:21:46 10° SW 17:24:54 19° S 17:28:21 10° SE daylight
27 Jun - 19:46:03 10° SW 19:49:06 15° S 19:52:54 10° SSE daylight
28 Jun - 16:11:29 10° SW 16:14:27 17° S 16:17:20 10° SE daylight
28 Jun - 18:35:26 10° SW 18:38:26 17° S 18:42:00 10° SSE daylight
29 Jun - 15:01:11 10° SSW 15:03:57 14° S 15:06:25 10° SE daylight
29 Jun - 17:24:54 10° SW 17:27:54 18° S 17:31:10 10° SE daylight
29 Jun - 19:50:43 10° SSW 19:52:09 11° SSW 19:53:43 10° S daylight
30 Jun - 13:51:05 10° S 13:53:17 12° SSE 13:55:15 10° SE daylight
30 Jun - 16:14:15 10° SW 16:17:27 18° S 16:20:31 10° SE daylight
30 Jun - 18:39:10 10° SW 18:41:28 13° SSW 18:44:01 10° SSE daylight
